Bookmark and Share
Track history (hours):
 

Bsle Venus

Last reported at 2014-Apr-19 16:32 UTC. Time now 2014-Apr-19 17:08 UTC.
Position N 52°10' E 003°11'.

Length 113 m; draft 9 m.

Type: Cargo ship. MMSI: 373175000.

NotesDate/timePositionNaut miles runAvg speedWind from/ knotsBaromVisibWave heightAir tempDewpointWater temp
2014-Apr-19 16:32N 52°10' E 003°11'1111.7
2014-Apr-19 15:33N 52°02' E 002°58'2710.9
2014-Apr-19 13:04N 51°41' E 002°29'5 9.8
2014-Apr-19 12:34N 51°37' E 002°24'9 9.2
2014-Apr-19 11:33N 51°30' E 002°14'9 8.6
2014-Apr-19 10:33N 51°22' E 002°10'9 8.9
2014-Apr-19 09:33N 51°14' E 002°05'8 8.3
2014-Apr-19 08:34N 51°09' E 001°53'9 8.2
2014-Apr-19 07:28N 51°04' E 001°42'50 9.9
2014-Apr-19 02:27N 50°28' E 000°48'1011.2
2014-Apr-19 01:34N 50°25' E 000°33'7113.0
2014-Apr-18 20:06N 50°06' W 001°14'19810.7
2014-Apr-18 01:33N 48°36' W 005°45'5510.3
2014-Apr-17 20:15N 47°45' W 005°18'710.2
2014-Apr-17 19:33N 47°38' W 005°15'  
2014-Apr-14 19:32N 43°20' W 003°02'0 0.0
2014-Apr-14 18:34N 43°20' W 003°02'0 0.0
2014-Apr-14 17:32N 43°20' W 003°02'0 0.0
2014-Apr-14 16:31N 43°20' W 003°02'0 0.0
2014-Apr-14 11:32N 43°20' W 003°02'0 0.0
2014-Apr-14 08:33N 43°20' W 003°02'0 0.0
2014-Apr-14 07:30N 43°20' W 003°02'0 0.0
2014-Apr-14 06:33N 43°20' W 003°02'0 0.0
2014-Apr-14 05:33N 43°20' W 003°02'  

Dump ship's entire track history

sailing weather and tide predictions

Bsle Venus — 3FCQ3 — position and weather